Simultaneous Nadir Overpasses (SNOs) Predictions

Prediction of SNOs between AQUA and METOP-A Satellite Orbit:

Table of predicted SNOs for the next 14.0 days since TLE Epoch: 7/8/2016
Index Date (AQUA) Time (AQUA) Lat,Lon (AQUA) SZA (AQUA ) Date (METOP-A) Time (METOP-A) Lat,Lon (METOP-A) SZA (METOP-A ) Distance(km) Time Diff (sec)
1 07/09/2016 09:44:30 -73.84,-151.93 128.39 07/09/2016 09:43:28 -73.83,-151.96 128.38 1.63 62
2 07/09/2016 10:33:59 73.91, 15.56 51.70 07/09/2016 10:34:06 73.90, 15.56 51.69 0.32 7
3 07/09/2016 11:23:31 -74.25,-177.58 127.93 07/09/2016 11:24:41 -74.25,-176.26 128.00 39.63 70
4 07/12/2016 05:18:45 -73.88, -85.57 127.97 07/12/2016 05:17:49 -73.86, -85.47 127.98 3.65 56
5 07/12/2016 06:08:13 73.90, 82.01 52.07 07/12/2016 06:08:27 73.93, 82.04 52.10 3.47 14
6 07/12/2016 06:57:51 -74.54,-111.84 127.23 07/12/2016 06:58:57 -74.52,-109.14 127.36 80.21 66
7 07/15/2016 00:52:59 -73.87, -19.12 127.55 07/15/2016 00:52:11 -73.84, -19.11 127.57 3.34 48
8 07/15/2016 01:42:27 73.90, 148.44 52.50 07/15/2016 01:42:49 73.91, 148.39 52.50 1.74 22
9 07/17/2016 20:27:12 -73.87, 47.31 127.07 07/17/2016 20:26:31 -73.87, 47.37 127.07 1.89 41
10 07/17/2016 21:16:40 73.91,-145.14 52.98 07/17/2016 21:17:09 73.93,-145.15 53.00 1.98 29
11 07/20/2016 16:01:26 -73.88, 113.73 126.54 07/20/2016 16:00:52 -73.89, 113.84 126.52 3.71 34
12 07/20/2016 16:50:54 73.93, -78.74 53.52 07/20/2016 16:51:30 73.95, -78.69 53.54 2.87 36




NCC Satellite Simultaneous Nadir Overpasses (SNOs) Prediction Service
